Breckenridge, TX

4:48 AM CST on February 07, 2016 (GMT -0600)
Stephens County

Weather History for KBKD - December, 2012

Change the Weather History Date:

Monday, December 3, 2012

  Actual Average (KABI) Record (KABI)
Temperature  
Mean Temperature 72 °F 48 °F  
Max Temperature 82 °F 59 °F 87 °F (2005)
Min Temperature 62 °F 36 °F 16 °F (1897)
Degree Days  
Heating Degree Days 0 17  
Month to date heating degree days 51  
Since 1 July heating degree days 484  
Cooling Degree Days 7 0  
Month to date cooling degree days 0  
Year to date cooling degree days 2408  
Growing Degree Days 22 (Base 50)    
Moisture  
Dew Point 56 °F    
Average Humidity 62    
Maximum Humidity 88    
Minimum Humidity 32    
Precipitation  
Precipitation 0.00 in 0.04 in 1.43 in (1947)
Month to date precipitation 0.11  
Year to date precipitation 23.70  
Sea Level Pressure  
Sea Level Pressure 29.93 in    
Wind  
Wind Speed 14 mph (SSW)    
Max Wind Speed 22 mph    
Max Gust Speed 43 mph    
Visibility 10 miles    
Events      
T = Trace of Precipitation, MM = Missing Value Source: NWS Daily Summary

Daily Weather History Graph

Daily Weather History Graph

Search for Another Location

Airport or City:

Trip Planner

Search our weather history database for the weather conditions in past years. The results will help you decide how hot, cold, wet, or windy it might be!

Date:

Astronomy

Dec. 03, 2012 Rise Set
Actual Time 7:21 AM CST 5:29 PM CST
Civil Twilight 6:54 AM CST 5:56 PM CST
Nautical Twilight 6:24 AM CST 6:26 PM CST
Astronomical Twilight 5:54 AM CST 6:56 PM CST
Moon 10:08 PM CST (12/3) 10:53 AM CST (12/3)
Length of Visible Light 11h 01m
Length of Day
10h 07m
Waning Gibbous, 78% of the Moon is Illuminated
Dec 3
Waning Gibbous
Dec 6
Last Quarter
Dec 13
New
Dec 19
First Quarter
Dec 28
Full

Hourly Weather History & Observations

Time (CST) Temp. Heat Index Dew Point Humidity Pressure Visibility Wind Dir Wind Speed Gust Speed Precip Events Conditions
12:15 AM 66.2 °F - 59.0 °F 78% 29.97 in 10.0 mi South 15.0 mph 21.9 mph N/A   Clear
12:35 AM 66.2 °F - 59.0 °F 78% 29.96 in 10.0 mi South 12.7 mph 19.6 mph N/A   Clear
12:55 AM 66.2 °F - 59.0 °F 78% 29.96 in 10.0 mi South 13.8 mph 19.6 mph N/A   Clear
1:15 AM 64.4 °F - 59.0 °F 83% 29.96 in 10.0 mi SSW 11.5 mph 17.3 mph N/A   Clear
1:35 AM 64.4 °F - 59.0 °F 83% 29.96 in 10.0 mi South 12.7 mph 17.3 mph N/A   Clear
1:55 AM 64.4 °F - 59.0 °F 83% 29.96 in 10.0 mi SSW 11.5 mph 16.1 mph N/A   Clear
2:15 AM 64.4 °F - 59.0 °F 83% 29.96 in 10.0 mi SSW 12.7 mph - N/A   Clear
2:35 AM 64.4 °F - 59.0 °F 83% 29.95 in 10.0 mi South 11.5 mph - N/A   Clear
2:55 AM 64.4 °F - 59.0 °F 83% 29.95 in 10.0 mi SSW 12.7 mph 18.4 mph N/A   Clear
3:15 AM 64.4 °F - 59.0 °F 83% 29.95 in 10.0 mi SSW 11.5 mph 19.6 mph N/A   Clear
3:35 AM 64.4 °F - 59.0 °F 83% 29.95 in 10.0 mi South 15.0 mph - N/A   Clear
3:55 AM 64.4 °F - 59.0 °F 83% 29.94 in 10.0 mi South 12.7 mph - N/A   Clear
4:15 AM 64.4 °F - 59.0 °F 83% 29.93 in 10.0 mi South 13.8 mph - N/A   Clear
4:35 AM 64.4 °F - 59.0 °F 83% 29.94 in 10.0 mi South 13.8 mph 19.6 mph N/A   Clear
4:55 AM 64.4 °F - 59.0 °F 83% 29.93 in 10.0 mi South 15.0 mph - N/A   Clear
5:15 AM 62.6 °F - 59.0 °F 88% 29.93 in 10.0 mi South 15.0 mph 21.9 mph N/A   Clear
5:35 AM 62.6 °F - 59.0 °F 88% 29.93 in 10.0 mi South 13.8 mph - N/A   Clear
5:55 AM 62.6 °F - 59.0 °F 88% 29.93 in 10.0 mi South 15.0 mph - N/A   Clear
6:35 AM 64.4 °F - 59.0 °F 83% 29.94 in 10.0 mi SSW 16.1 mph 23.0 mph N/A   Clear
6:55 AM 64.4 °F - 59.0 °F 83% 29.95 in 10.0 mi SSW 18.4 mph 25.3 mph N/A   Clear
7:15 AM 64.4 °F - 59.0 °F 83% 29.95 in 10.0 mi SSW 17.3 mph 21.9 mph N/A   Clear
7:35 AM 64.4 °F - 59.0 °F 83% 29.95 in 10.0 mi SSW 17.3 mph 24.2 mph N/A   Clear
7:55 AM 64.4 °F - 59.0 °F 83% 29.95 in 10.0 mi SSW 16.1 mph 25.3 mph N/A   Clear
8:15 AM 64.4 °F - 59.0 °F 83% 29.95 in 10.0 mi SSW 18.4 mph 24.2 mph N/A   Clear
8:35 AM 68.0 °F - 59.0 °F 73% 29.95 in 10.0 mi SSW 17.3 mph 23.0 mph N/A   Clear
8:55 AM 68.0 °F - 59.0 °F 73% 29.96 in 10.0 mi SSW 17.3 mph 25.3 mph N/A   Clear
9:15 AM 69.8 °F - 59.0 °F 68% 29.96 in 10.0 mi SSW 21.9 mph 28.8 mph N/A   Scattered Clouds
9:35 AM 71.6 °F - 59.0 °F 64% 29.97 in 10.0 mi SSW 18.4 mph 31.1 mph N/A   Scattered Clouds
9:55 AM 71.6 °F - 59.0 °F 64% 29.96 in 10.0 mi SSW 20.7 mph 31.1 mph N/A   Clear
10:15 AM 73.4 °F - 59.0 °F 61% 29.98 in 10.0 mi SSW 20.7 mph 27.6 mph N/A   Clear
10:35 AM 73.4 °F - 57.2 °F 57% 29.98 in 10.0 mi SW 19.6 mph 27.6 mph N/A   Clear
10:55 AM 73.4 °F - 57.2 °F 57% 29.97 in 10.0 mi SW 17.3 mph 29.9 mph N/A   Clear
11:15 AM 77.0 °F - 57.2 °F 50% 29.97 in 10.0 mi SW 19.6 mph 24.2 mph N/A   Clear
11:35 AM 77.0 °F - 57.2 °F 50% 29.97 in 10.0 mi SSW 17.3 mph 21.9 mph N/A   Clear
11:55 AM 77.0 °F - 57.2 °F 50% 29.97 in 10.0 mi SW 16.1 mph 23.0 mph N/A   Clear
12:15 PM 77.0 °F - 57.2 °F 50% 29.96 in 10.0 mi SW 15.0 mph 26.5 mph N/A   Clear
12:35 PM 78.8 °F - 55.4 °F 44% 29.94 in 10.0 mi SW 20.7 mph 25.3 mph N/A   Clear
1:15 PM 80.6 °F 80.5 °F 55.4 °F 42% 29.92 in 10.0 mi WSW 15.0 mph 23.0 mph N/A   Clear
1:35 PM 80.6 °F 80.5 °F 55.4 °F 42% 29.91 in 10.0 mi SW 17.3 mph 24.2 mph N/A   Clear
1:55 PM 82.4 °F 81.7 °F 55.4 °F 39% 29.89 in 10.0 mi SW 13.8 mph 23.0 mph N/A   Clear
2:15 PM 82.4 °F 81.4 °F 53.6 °F 37% 29.89 in 10.0 mi SSW 17.3 mph 23.0 mph N/A   Clear
2:35 PM 82.4 °F 81.4 °F 53.6 °F 37% 29.88 in 10.0 mi SSW 13.8 mph 24.2 mph N/A   Clear
2:55 PM 82.4 °F - 50.0 °F 32% 29.87 in 10.0 mi SW 17.3 mph 23.0 mph N/A   Clear
3:15 PM 82.4 °F - 51.8 °F 35% 29.87 in 10.0 mi SW 17.3 mph 24.2 mph N/A   Clear
3:35 PM 82.4 °F - 51.8 °F 35% 29.87 in 10.0 mi WSW 16.1 mph 21.9 mph N/A   Clear
3:55 PM 82.4 °F - 51.8 °F 35% 29.86 in 10.0 mi SW 13.8 mph 42.6 mph N/A   Clear
4:15 PM 82.4 °F - 51.8 °F 35% 29.86 in 10.0 mi SW 13.8 mph - N/A   Clear
4:35 PM 82.4 °F - 51.8 °F 35% 29.86 in 10.0 mi SW 16.1 mph - N/A   Clear
4:55 PM 80.6 °F - 51.8 °F 37% 29.87 in 10.0 mi SW 10.4 mph 21.9 mph N/A   Clear
5:15 PM 78.8 °F - 51.8 °F 39% 29.87 in 10.0 mi SW 6.9 mph - N/A   Clear
5:35 PM 77.0 °F - 53.6 °F 44% 29.88 in 10.0 mi SW 5.8 mph - N/A   Clear
5:55 PM 73.4 °F - 53.6 °F 50% 29.88 in 10.0 mi SSW 6.9 mph - N/A   Clear
6:15 PM 73.4 °F - 53.6 °F 50% 29.88 in 10.0 mi SSW 8.1 mph - N/A   Clear
6:35 PM 71.6 °F - 53.6 °F 53% 29.89 in 10.0 mi SSW 9.2 mph - N/A   Clear
6:55 PM 71.6 °F - 53.6 °F 53% 29.90 in 10.0 mi SSW 10.4 mph - N/A   Clear
7:15 PM 71.6 °F - 53.6 °F 53% 29.90 in 10.0 mi SSW 9.2 mph - N/A   Clear
7:35 PM 73.4 °F - 53.6 °F 50% 29.91 in 10.0 mi South 9.2 mph - N/A   Clear
7:55 PM 71.6 °F - 53.6 °F 53% 29.92 in 10.0 mi South 10.4 mph - N/A   Clear
8:15 PM 71.6 °F - 55.4 °F 57% 29.92 in 10.0 mi South 11.5 mph 17.3 mph N/A   Clear
8:35 PM 69.8 °F - 55.4 °F 60% 29.93 in 10.0 mi South 11.5 mph 16.1 mph N/A   Clear
8:55 PM 69.8 °F - 55.4 °F 60% 29.93 in 10.0 mi South 11.5 mph 17.3 mph N/A   Clear
9:15 PM 69.8 °F - 57.2 °F 64% 29.93 in 10.0 mi South 15.0 mph 20.7 mph N/A   Clear
9:35 PM 69.8 °F - 57.2 °F 64% 29.93 in 10.0 mi South 15.0 mph 18.4 mph N/A   Clear
9:55 PM 69.8 °F - 59.0 °F 68% 29.94 in 10.0 mi South 11.5 mph 19.6 mph N/A   Clear
10:15 PM 68.0 °F - 55.4 °F 64% 29.98 in 10.0 mi West 8.1 mph - N/A   Clear
10:35 PM 68.0 °F - 55.4 °F 64% 29.99 in 10.0 mi West 10.4 mph - N/A   Scattered Clouds
10:55 PM 68.0 °F - 55.4 °F 64% 30.00 in 10.0 mi SW 5.8 mph - N/A   Scattered Clouds
11:15 PM 66.2 °F - 55.4 °F 68% 30.00 in 10.0 mi WSW 6.9 mph - N/A   Clear
11:35 PM 64.4 °F - 39.2 °F 40% 30.01 in 10.0 mi North 8.1 mph - N/A   Clear
11:55 PM 62.6 °F - 32.0 °F 32% 30.02 in 10.0 mi North 10.4 mph - N/A   Clear